SCP
2 2 2 2 2 1 1 1 1 1 1 1 1 1 1 1 0 0 0 0 0 0 0 0 0 0 0 0 0 0 0 0 0 0 0 0 0 0 0 0 0 0 0
2 2 1 1 1 1 1 1 1 1 1 1 1 1 1 1 0 0 0 0 0 0 0 0 0 0 0 0 0 0 0 0 0 0 0 0 0 0 0 0 0 0 0
1 1 1 1 1 1 1 1 1 1 1 1 1 1 1 0 0 0 0 0 0 0 0 0 0 0 0 0 0 0 0 0 0 0 0 0 0 0 0 0 0 0 0
1 1 1 1 1 0 0 0 1 1 1 1 1 1 1 0 0 0 0 0 0 0 0 0 0 0 0 0 0 0 0 0 0 0 0 0 0 0 0 0 0 0 0
1 1 0 0 0 0 0 0 0 0 0 0 0 0 0 0 0 0 0 0 0 0 0 0 0 0 0 0 0 0 0 0 0 0 0 0 0 0 0 0 0 0 0
0 0 0 0 0 0 0 0 0 0 0 0 0 0 0 0 0 0 0 0 0 0 0 0 0 0 0 0 0 0 0 0 0 0 0 0 0 0 0 0 0 0 0
0 0 0 0 0 0 0 0 0 0 0 0 0 0 0 0 0 0 0 0 0 0 0 0 0 0 0 0 0 0 0 0 0 0 0 0 0 0 0 0 0 0 0
0 0 0 0 0 0 0 0 0 0 0 0 0 0 0 0 0 0 0 0 0 0 0 0 0 0 0 0 0 0 0 0 0 0 0 0 0 0 0 0 0 0 0
0 0 0 0 0 0 0 0 0 0 0 0 0 0 0 0 0 0 0 0 0 0 0 0 0 0 0 0 0 0 0 0 0 0 0 0 0 0 0 0 0 0 0
0 0 0 0 0 0 0 0 0 0 0 0 0 0 0 0 0 0 0 0 0 0 0 0 0 0 0 0 0 0 0 0 0 0 0 0 0 0 0 0 0 0 0
0 0 0 0 0 0 0 0 0 0 0 0 0 0 0 0 0 0 0 0 0 0 0 0 0 0 0 0 0 0 0 0 0 0 0 0 0 0 0 0 0 0 0
0 0 0 0 0 0 0 0 0 0 0 0 0 0 0 0 0 0 0 0 0 0 0 0 0 0 0 0 0 0 0 0 0 0 0 0 0 0 0 0 0 0 0
0 0 0 0 0 0 0 0 0 0 0 0 0 0 0 0 0 0 0 0 0 0 0 0 0 0 0 0 0 0 0 0 0 0 0 0 0 0 0 0 0 0 0
0 0 0 0 0 0 0 0 0 0 0 0 0 0 0 0 0 0 0 0 0 0 0 0 0 0 0 0 0 0 0 0 0 0 0 0 0 0 0 0 0 0 0
0 0 0 0 0 0 0 0 0 0 0 0 0 0 0 0 0 0 0 0 0 0 0 0 0 0 0 0 0 0 0 -0 0 0 0 0 0 0 0 0 0 0 0
0 0 0 0 0 0 0 0 0 0 0 0 0 0 0 0 0 0 0 0 0 0 0 0 0 0 0 0 0 0 0 0 0 0 0 0 0 0 0 0 0 0 0
0 0 0 0 0 0 0 0 0 0 0 0 0 0 0 0 0 0 0 0 0 0 0 0 0 0 0 0 0 0 0 0 0 0 0 0 0 0 0 0 0 0 0
0 0 0 0 0 0 0 0 0 0 0 0 0 0 0 0 0 0 0 0 0 0 0 0 0 0 0 0 0 0 0 0 0 0 0 0 0 0 0 0 0 0 0
0 0 0 0 0 0 0 0 0 0 0 0 0 0 0 0 0 0 0 0 0 0 0 0 0 0 0 0 0 0 0 0 0 0 0 0 0 0 0 0 0 0 0
0 0 -0 0 0 0 0 0 0 0 0 0 0 0 0 0 0 0 0 0 0 0 0 0 0 0 0 0 0 0 0 -0 -0 -0 -0 0 0 0 0 0 0 0 0
0 -0 -0 0 0 0 0 0 0 -0 -0 -0 0 0 0 0 0 0 0 -0 0 0 0 0 0 0 0 0 0 0 0 -0 0 0 0 0 0 0 0 0 0 0 0
0 -0 -0 0 0 -0 0 0 0 -0 -0 0 0 0 0 0 -0 -0 -0 -0 -0 -0 -0 0 0 0 0 0 0 0 0 -0 0 0 0 0 0 0 0 0 0 0 0
0 -0 0 0 0 0 0 0 0 0 0 0 0 0 0 -0 -0 -0 -0 -0 -0 -0 -0 0 0 0 0 0 0 0 0 0 0 0 0 0 0 0 0 0 0 0 0
0 0 0 0 0 0 0 0 0 0 0 0 0 0 0 0 -0 -0 -0 -0 -0 -0 0 0 0 0 0 0 0 0 0 0 0 0 0 0 0 0 0 0 0 0 0
0 0 0 0 0 0 0 0 0 0 0 0 0 -0 -0 -0 -0 -0 -0 -0 -0 -0 -0 0 0 0 0 0 0 0 0 0 0 0 0 0 0 0 0 0 0 0 0
0 0 0 0 0 -0 -0 0 0 0 0 0 0 0 -0 0 0 0 0 0 -0 -0 -0 -0 0 0 0 0 0 0 0 0 0 0 0 0 0 0 0 0 0 0 0
Wind_Speed
8 10 10 9 9 8 6 3 2 2 3 3 4 4 3 2 1 1 1 1 1 1 1 2 3 3 3 4 5 5 6 5 6 6 6 6 6 6 4 4 5 6 6
9 10 11 10 10 9 7 5 3 2 2 3 3 3 4 4 3 2 3 3 2 1 1 2 3 3 3 4 5 5 4 3 4 5 5 4 3 4 4 3 4 5 5
9 9 10 9 9 8 7 6 6 5 3 3 4 4 4 3 3 3 3 4 3 3 2 2 2 2 3 3 4 5 5 4 2 3 5 6 5 3 2 3 3 4 4
9 9 9 9 9 8 7 6 6 6 4 3 4 6 4 4 3 4 4 5 5 5 5 4 4 3 2 3 3 3 4 5 4 2 2 3 6 6 4 2 2 3 4
9 9 9 9 9 8 7 6 7 8 6 5 5 6 6 5 5 5 7 6 6 7 7 6 6 5 4 4 4 4 4 3 4 3 3 4 4 4 5 4 2 2 2
9 10 9 9 9 8 7 7 8 8 8 7 6 6 8 8 9 7 6 6 5 6 8 8 7 7 6 5 5 5 6 5 6 5 3 3 3 3 4 5 5 3 2
9 9 9 9 9 9 9 8 8 8 8 8 8 8 9 8 8 7 7 6 5 5 7 7 7 7 7 7 7 8 8 7 8 7 5 4 3 3 4 6 5 3 2
9 9 9 8 8 9 9 8 8 8 8 9 9 9 9 7 7 8 7 7 6 5 6 8 8 8 8 8 8 8 8 8 8 9 7 5 4 4 4 5 6 5 2
8 8 8 8 7 8 8 8 8 9 9 9 9 9 9 9 9 8 8 6 6 6 7 8 9 8 8 8 8 7 7 8 8 7 7 6 5 5 4 4 5 6 5
8 7 7 7 7 7 7 8 8 8 9 8 8 8 9 9 9 9 9 8 7 7 8 8 8 8 8 8 8 7 7 9 7 6 8 7 5 5 5 4 3 3 5
8 7 6 7 6 7 7 8 8 8 9 8 8 9 9 9 9 8 8 7 7 7 7 7 7 8 7 7 7 8 8 9 8 8 9 8 7 6 5 4 4 4 4
8 8 7 6 6 7 7 7 7 8 8 8 8 9 9 9 9 8 7 7 7 7 7 7 8 8 7 7 7 8 9 9 9 8 8 8 7 8 6 6 6 4 4
10 8 7 6 6 6 6 7 7 7 7 7 8 8 8 8 8 7 7 7 7 7 8 8 8 8 7 7 7 8 8 8 7 7 8 7 8 8 6 7 6 4 4
9 8 7 6 6 6 6 6 7 6 7 7 8 8 7 7 7 6 7 7 8 8 8 8 8 8 7 7 6 7 7 7 7 6 7 7 7 6 6 6 5 5 5
10 9 8 7 7 7 6 6 6 6 6 7 7 7 6 6 7 7 7 7 8 9 8 8 8 8 7 6 6 6 7 6 6 6 6 6 7 8 5 4 4 5 4
11 10 10 9 8 7 6 6 5 5 5 7 6 5 5 6 6 6 7 7 8 8 8 8 8 8 6 8 10 7 6 5 6 6 5 6 7 8 8 6 5 5 4
11 11 10 8 7 6 6 6 5 5 6 6 5 5 5 5 5 6 7 7 6 7 7 7 7 7 7 10 11 10 6 5 5 5 4 5 6 7 5 6 7 5 4
11 10 9 8 6 6 5 5 5 5 5 5 5 5 5 5 5 6 6 5 5 5 5 5 5 6 7 10 10 10 7 6 6 5 5 5 5 6 5 6 6 5 3
10 9 8 8 7 6 6 6 5 5 5 5 5 5 5 5 5 5 5 4 5 5 4 4 5 6 6 9 9 8 5 5 5 4 4 4 5 7 8 6 5 5 4
9 9 8 8 7 6 6 6 5 5 4 4 4 4 5 5 5 4 4 3 4 4 4 4 4 5 5 9 9 8 4 5 3 3 4 4 4 6 6 4 4 4 4
10 9 8 7 6 6 6 6 5 4 4 5 5 4 4 4 4 3 3 4 4 5 4 5 4 4 5 8 10 8 4 3 3 2 2 2 4 5 4 2 1 2 3
10 9 8 6 5 5 6 6 4 4 5 5 5 4 3 3 3 3 3 4 5 5 4 4 4 3 4 6 8 10 8 5 3 1 2 3 5 6 6 3 3 4 3
9 7 7 7 5 5 6 7 5 5 6 5 5 4 4 3 3 4 4 4 4 3 3 3 3 3 3 5 9 10 9 8 3 2 4 5 5 5 4 6 7 4 2
8 7 8 7 6 5 6 6 6 6 6 6 4 4 5 5 5 4 4 4 3 3 3 3 3 2 2 3 4 4 4 6 5 4 5 6 5 4 3 4 4 2 0
7 7 8 7 7 6 6 6 6 6 6 5 5 5 5 6 5 5 4 3 1 3 5 4 3 3 1 0 1 2 2 2 3 3 3 4 4 4 4 3 3 3 2
8 8 8 7 7 7 6 5 6 7 6 5 5 4 4 4 4 4 4 7 5 6 6 6 5 2 2 2 2 3 4 4 3 3 3 2 2 2 2 2 2 2 2
Wind_Direction
67 58 53 50 55 46 43 53 71 124 140 148 145 143 142 124 103 101 105 114 117 140 167 174 167 168 167 166 163 153 143 138 128 112 99 70 61 68 70 83 94 94 92
66 57 50 42 45 45 26 27 19 59 108 135 143 131 123 100 83 71 66 59 61 77 165 148 159 163 157 155 155 148 142 148 151 136 130 124 86 58 56 72 94 95 94
72 58 56 44 41 39 24 29 25 41 63 105 117 111 102 96 83 58 54 37 50 52 58 91 124 144 151 154 160 158 153 158 145 141 148 149 155 132 56 50 76 94 96
72 63 55 45 35 28 23 27 31 42 43 72 111 122 119 115 100 89 74 51 44 50 54 62 72 87 110 132 147 149 149 153 154 125 88 121 137 144 136 77 56 82 93
80 67 57 50 38 26 24 25 42 47 45 61 91 107 107 108 106 99 92 74 52 49 52 56 62 65 73 88 96 102 110 125 138 136 120 98 91 103 131 145 142 83 67
78 69 58 50 40 31 27 29 43 48 47 59 74 96 111 116 115 107 96 80 63 50 50 56 60 62 62 68 76 83 89 90 95 92 93 116 125 134 125 135 140 127 96
79 69 57 48 39 33 30 34 46 52 51 59 69 83 94 98 100 98 91 85 72 59 50 55 58 61 62 64 67 73 75 81 87 87 84 81 86 116 119 127 130 119 98
78 72 62 53 43 35 31 35 47 54 56 62 70 75 84 88 85 82 84 80 77 70 64 64 63 61 63 67 69 71 70 72 77 78 77 76 65 78 110 129 135 123 87
84 75 66 58 50 42 36 36 49 57 58 62 71 74 79 86 88 84 81 81 78 77 71 70 69 64 64 66 71 74 74 76 73 71 71 72 64 65 74 101 131 135 133
92 83 72 63 55 50 46 47 51 58 60 64 72 80 77 80 84 83 79 78 76 74 75 74 71 68 65 65 69 71 69 74 69 69 68 63 60 63 64 83 90 105 128
110 97 83 72 63 56 52 53 54 59 63 66 73 77 78 79 80 81 81 81 78 73 73 73 71 68 65 64 71 73 71 72 68 66 69 63 59 62 56 65 77 83 103
112 104 94 84 72 64 59 59 60 64 64 68 75 77 77 79 80 79 75 75 76 72 72 71 67 65 64 63 71 79 74 75 73 68 68 62 65 58 54 62 68 73 85
117 111 102 94 85 77 72 69 68 69 68 72 76 76 76 78 78 77 75 73 73 70 67 67 66 63 61 64 69 76 76 74 74 74 74 68 70 62 57 60 62 62 70
123 118 110 103 96 90 86 85 79 78 78 77 77 75 73 77 78 74 72 72 74 74 71 69 66 63 61 61 67 76 77 74 71 72 72 69 73 74 68 65 62 70 69
130 125 119 114 108 103 99 95 91 87 88 88 85 82 78 76 76 72 70 72 76 79 76 73 64 57 55 55 70 75 80 78 72 65 63 67 72 72 70 79 77 80 78
137 133 130 126 123 120 117 109 106 102 98 95 91 87 81 78 77 75 76 78 77 75 73 70 68 60 54 61 69 79 77 80 81 75 62 57 47 46 50 66 92 108 105
143 140 139 137 136 134 131 127 123 114 106 102 99 91 85 80 79 88 83 84 83 82 78 73 72 65 49 58 65 75 83 82 86 88 72 60 42 39 40 46 58 61 88
144 143 141 139 138 133 129 126 121 116 112 108 105 99 94 90 86 87 88 89 89 90 87 80 72 64 44 52 64 76 77 77 78 85 90 80 45 35 53 58 51 40 27
142 140 138 136 135 133 132 124 120 116 113 112 110 107 104 100 94 90 90 92 94 90 88 87 79 68 38 44 67 82 79 78 71 73 78 81 62 46 61 63 52 30 1
135 135 133 130 135 138 131 125 123 118 120 123 120 112 109 109 105 102 95 92 99 101 97 82 73 73 52 48 67 86 87 86 77 57 48 53 62 54 60 66 57 25 337
135 136 134 135 141 140 132 131 134 137 139 126 112 104 105 109 105 91 91 104 101 96 88 81 63 59 55 49 58 74 90 105 95 60 18 350 7 22 28 49 78 304 313
136 138 136 136 142 144 136 132 139 137 125 117 111 107 105 106 98 93 88 100 107 101 93 82 58 37 35 43 51 63 77 97 90 48 334 311 326 338 345 344 316 332 358
140 140 140 140 144 147 141 139 145 131 120 111 109 101 83 69 82 95 98 92 96 102 101 94 81 42 25 26 41 53 62 66 64 343 319 320 326 334 338 336 342 360 34
143 140 136 133 134 137 133 136 134 125 120 119 115 105 92 78 66 67 79 96 107 115 119 118 111 76 37 23 21 28 32 30 20 354 342 355 8 17 349 341 359 24 49
138 135 135 136 137 133 130 134 131 125 121 117 111 106 100 99 84 69 60 82 85 164 148 150 149 139 119 300 71 65 26 2 346 347 10 19 18 17 11 11 10 16 26
134 134 137 139 139 135 134 134 134 129 123 118 119 120 119 113 108 101 65 41 59 80 111 137 142 135 156 152 56 27 5 350 3 50 34 10 8 15 12 13 3 359 355